Theta_e
324 316 327 316 300 298 294 298 303 305 308 311 316 315 316 317 312 306 329 331 330 336 340 341 344 346 347 348 346 345 344 342 341 339 337 336 336 336 336 335 336 335 334 334 334 334 335 335 334
321 318 316 308 297 291 293 300 302 305 312 314 316 318 317 314 324 323 324 330 333 337 341 339 342 345 348 347 345 345 344 340 338 337 336 335 335 335 335 334 334 334 333 334 334 334 334 333 332
313 317 306 302 297 293 294 301 305 310 312 313 311 317 318 318 324 326 328 329 335 338 340 339 343 346 346 345 345 344 343 339 337 336 336 335 334 334 334 334 334 334 333 333 333 333 332 331 330
307 307 304 297 296 299 300 304 305 310 312 314 315 314 320 327 327 326 328 330 335 338 340 339 344 346 346 345 344 343 341 339 337 336 336 334 335 336 334 333 333 333 332 332 330 329 328 327 328
305 302 296 294 296 299 303 306 306 309 310 310 313 312 317 327 328 325 326 331 333 336 339 340 343 344 345 344 344 343 341 340 340 339 338 335 338 337 335 334 332 331 330 329 328 327 327 328 328
299 299 292 293 296 300 303 306 307 309 312 311 314 315 316 327 321 322 328 328 333 336 339 340 337 340 342 343 342 342 341 340 339 339 338 335 337 338 335 333 333 332 331 329 329 329 329 329 330
298 295 293 294 296 299 305 304 307 308 308 310 320 314 316 321 322 321 325 330 333 336 337 339 339 338 336 338 338 339 340 339 338 338 337 336 336 336 336 335 334 333 331 331 330 330 330 331 331
301 298 294 295 297 298 306 306 306 310 307 312 321 314 317 324 322 319 330 332 333 336 338 337 337 337 337 336 332 334 336 336 336 335 333 330 330 331 331 330 333 332 331 331 331 331 331 331 332
310 297 293 296 296 299 306 304 307 309 308 315 320 319 323 327 319 321 328 330 332 334 335 335 335 334 334 333 331 330 331 331 331 329 327 324 326 327 326 326 328 333 334 333 332 332 333 333 330
302 298 297 301 301 302 306 305 304 306 308 313 317 323 327 322 316 317 325 326 328 329 332 333 333 332 332 334 329 329 330 329 328 328 326 326 325 325 327 323 324 327 329 331 332 332 331 327 324
303 297 302 303 306 307 307 306 308 305 301 312 315 320 322 320 317 314 323 327 328 330 332 333 332 331 331 332 328 327 327 325 325 326 325 325 325 323 323 322 322 321 317 320 323 322 322 322 321
296 302 306 304 306 306 305 306 303 306 305 311 322 324 322 320 316 313 316 324 327 329 331 332 331 330 329 331 329 328 327 325 323 324 325 324 322 321 321 320 320 319 320 319 319 319 321 321 322
297 300 306 306 305 304 307 304 303 303 306 318 323 324 322 322 319 314 316 321 324 326 328 328 329 329 329 328 329 328 326 325 325 324 325 326 323 322 321 321 321 321 321 321 320 320 320 321 321
301 302 304 307 306 303 304 303 304 304 313 320 321 321 322 323 322 319 314 318 319 324 326 328 328 329 329 327 326 325 326 325 325 325 325 326 325 323 322 322 321 321 321 322 321 320 320 321 322
301 298 302 306 304 303 305 301 301 308 318 318 317 318 320 321 322 322 316 318 319 321 327 327 328 328 328 327 327 325 325 325 324 324 324 325 325 324 323 322 322 322 323 323 322 321 321 321 325
298 297 294 302 303 304 301 294 302 308 313 313 314 314 317 320 322 323 325 318 319 320 325 328 329 328 327 328 327 326 324 324 324 324 323 324 325 325 323 322 322 323 323 323 322 321 322 324 324
294 290 293 297 304 302 299 294 300 306 307 309 311 314 316 317 320 322 324 325 317 319 321 324 326 326 326 325 325 324 323 322 322 323 323 324 324 325 324 323 323 323 323 323 323 323 325 323 322
287 289 293 294 298 300 298 296 299 301 305 306 308 313 316 317 319 323 325 327 323 319 320 322 323 323 324 322 322 322 322 322 323 323 323 324 325 325 324 323 323 323 323 323 324 326 326 325 323
292 292 291 293 297 297 297 297 299 299 299 302 304 308 313 318 321 323 325 326 325 324 321 321 320 319 321 320 320 320 321 324 325 326 327 328 328 327 326 324 323 324 324 324 325 326 324 324 322
292 288 288 293 296 296 296 295 299 299 296 301 304 309 312 312 315 321 322 323 323 323 324 324 323 322 321 323 324 325 326 327 330 332 332 332 332 331 330 328 327 326 325 324 324 326 323 322 322
290 288 288 289 293 295 294 292 295 294 294 296 296 296 300 304 313 316 318 318 320 319 320 322 324 324 324 325 326 327 329 328 328 329 330 332 333 333 331 330 329 328 328 327 328 326 324 321 320
287 292 291 290 288 284 291 283 287 292 289 291 292 294 295 298 301 304 308 314 315 313 317 318 319 319 320 325 327 329 328 326 326 326 326 327 330 331 331 331 330 330 329 328 327 325 324 322 318
288 293 291 290 288 286 285 283 286 291 287 289 289 291 293 294 295 299 303 306 308 309 311 312 315 315 316 315 322 324 324 325 323 320 321 321 321 322 326 328 328 328 328 328 326 324 323 322 320
294 291 290 289 287 280 285 284 284 285 287 289 289 290 292 295 297 298 298 301 302 303 305 306 306 306 307 308 310 312 316 313 312 311 312 312 313 318 318 321 320 320 320 322 324 324 323 322 321
290 285 275 277 279 279 286 284 283 288 290 289 290 292 292 295 296 298 298 298 299 300 301 303 303 303 304 304 304 305 305 306 306 305 305 306 309 310 311 313 314 313 316 316 320 319 318 317 317
286 284 274 270 275 277 285 282 285 291 291 292 293 293 295 296 297 298 298 299 299 300 300 300 301 301 303 303 303 304 305 304 305 305 306 308 307 307 308 308 310 310 312 312 312 310 310 311 310
286 282 287 279 275 276 280 282 288 290 290 291 292 293 294 295 297 298 299 298 299 299 300 300 300 300 301 302 302 302 303 304 304 305 305 304 304 306 305 305 305 307 308 309 308 307 306 306 305
286 288 279 278 268 271 278 277 280 285 287 289 290 291 293 295 296 297 299 299 299 298 298 298 299 299 299 299 300 300 301 302 303 303 302 302 302 302 301 301 301 302 304 305 304 303 301 301 301
284 283 284 283 280 276 274 276 285 287 288 289 290 291 291 292 294 295 297 298 298 297 296 296 297 297 297 297 297 297 298 299 300 300 299 299 300 300 299 299 298 298 297 298 299 298 298 297 297
286 284 285 277 277 279 279 277 288 288 289 290 290 291 292 292 292 295 297 298 297 297 297 296 296 296 296 297 296 296 297 297 297 297 297 298 297 298 297 297 296 295 295 295 295 295 295 294 293
Wind_Speed
8 7 1 4 3 4 4 7 4 7 4 0 3 4 6 4 4 5 4 9 18 16 14 14 17 16 15 15 16 17 16 15 14 14 13 13 13 13 12 11 10 11 10 11 11 11 10 10 9
5 4 4 2 4 1 6 5 8 12 6 5 8 3 5 2 1 8 7 12 20 16 13 13 16 17 16 18 17 17 15 15 14 14 13 13 13 12 12 11 10 9 10 9 9 9 9 8 8
4 2 3 4 4 7 6 6 5 1 3 5 6 5 3 5 4 12 10 16 19 15 13 13 16 18 19 18 17 15 14 15 15 15 14 14 13 12 11 10 10 9 8 8 7 7 6 6 6
2 4 4 2 10 8 7 7 4 5 0 3 6 7 3 4 11 10 17 18 17 14 12 14 16 18 18 17 16 15 14 15 15 15 14 12 13 12 12 10 9 8 7 7 6 5 5 4 4
3 2 2 4 9 7 6 8 3 5 3 4 3 5 3 4 11 20 18 15 16 12 11 13 15 17 17 17 16 15 15 14 13 12 10 6 10 13 11 10 9 8 7 6 5 4 3 2 2
1 2 3 9 9 5 5 9 3 6 4 5 7 7 4 5 15 14 16 14 13 14 13 12 12 14 16 16 15 14 14 13 12 10 11 7 8 12 11 10 9 8 6 5 4 3 1 1 2
7 4 6 6 7 5 6 2 9 7 5 5 11 6 1 2 11 12 12 13 11 11 12 10 10 11 12 12 12 12 12 11 12 11 10 8 6 6 7 7 6 6 6 5 4 3 4 5 6
4 5 6 8 12 11 5 4 4 7 8 4 5 8 8 7 11 12 13 12 12 9 11 11 8 9 8 8 11 11 10 10 10 10 10 9 8 7 7 7 6 6 6 5 5 5 5 6 7
2 5 12 16 10 6 2 4 4 2 7 3 4 5 7 15 16 14 13 11 12 13 13 9 9 6 7 6 7 9 10 9 8 7 8 6 4 5 6 6 6 7 7 6 7 8 8 8 8
6 11 13 5 5 5 4 5 4 5 5 4 3 5 16 18 19 18 17 18 17 17 15 10 9 8 7 6 6 5 5 4 5 5 6 4 5 4 5 6 8 9 9 9 9 9 9 7 3
4 15 11 7 5 5 5 6 7 8 3 8 12 15 17 17 15 16 14 17 15 16 14 12 11 9 9 6 4 3 3 3 3 6 5 5 3 3 3 3 3 4 5 3 5 4 3 5 4
9 14 11 4 2 4 3 7 7 10 8 9 16 22 17 17 16 18 15 15 15 14 14 13 13 11 9 5 6 5 4 4 3 4 6 4 3 4 4 3 4 4 3 5 4 3 4 5 5
11 18 19 4 2 5 6 6 7 8 0 12 12 16 18 16 11 8 12 13 14 15 14 14 13 12 10 7 6 6 5 5 5 5 5 4 4 4 4 4 4 4 3 4 4 4 4 4 5
5 15 12 5 4 5 3 5 2 2 7 13 16 15 15 17 14 7 11 14 14 14 14 14 14 12 10 7 7 5 6 6 5 4 6 7 5 4 4 4 4 4 4 4 4 4 4 4 3
12 16 8 7 4 4 7 6 4 4 8 14 10 9 11 10 8 14 12 14 15 12 14 13 13 10 10 9 6 5 5 5 5 5 6 7 6 6 5 4 4 4 4 5 4 4 3 4 4
8 7 10 6 10 5 10 5 2 6 8 10 9 8 8 8 10 7 8 9 12 11 14 13 11 10 8 8 6 4 4 4 4 5 5 7 6 6 5 4 4 4 4 3 3 4 4 4 4
1 8 13 5 7 7 4 4 6 4 7 7 8 9 9 8 8 8 7 7 12 13 13 13 10 9 8 6 4 5 6 4 4 4 4 6 6 6 5 5 5 5 4 4 3 4 4 3 3
4 8 7 3 2 2 7 7 12 8 6 7 7 8 10 11 15 11 10 8 8 11 13 12 10 9 8 5 4 3 3 3 4 4 4 6 5 6 5 4 5 4 4 4 3 5 4 3 4
7 11 13 5 5 3 11 2 10 11 1 5 5 7 9 12 10 10 10 7 7 9 11 12 11 9 8 4 4 3 4 3 3 4 7 7 7 7 7 5 5 5 5 5 5 4 4 3 2
11 12 5 4 3 6 2 5 5 18 5 6 8 2 5 3 7 8 7 7 6 7 8 11 12 11 10 8 4 4 4 3 3 5 6 7 7 7 7 7 7 7 5 6 6 7 3 2 3
9 6 9 7 2 5 4 2 4 18 12 10 10 6 8 6 2 1 4 3 4 3 0 2 4 8 8 8 4 2 2 1 2 2 3 5 7 6 6 6 6 6 6 6 6 4 6 4 3
5 5 3 10 6 4 2 3 4 11 6 8 8 10 8 7 7 8 7 4 4 2 3 2 3 4 1 5 6 7 6 6 3 3 2 3 4 4 4 5 5 6 4 6 5 4 3 3 4
3 3 3 5 7 7 5 2 2 7 7 5 7 8 8 7 5 5 5 3 3 2 3 2 0 4 1 3 1 3 3 2 2 1 2 1 2 4 2 2 5 4 3 4 4 4 5 3 3
2 3 7 5 4 4 1 2 4 3 7 8 6 8 7 8 7 6 4 5 5 4 5 4 2 2 6 4 3 1 4 4 2 2 0 2 2 3 4 4 4 3 2 1 2 2 4 3 2
4 3 3 4 2 1 4 7 1 6 6 4 6 7 7 6 6 6 7 6 5 5 4 3 3 4 5 4 5 3 2 2 2 2 2 1 0 1 3 3 3 3 3 4 3 2 2 1 1
3 3 4 6 3 3 3 3 3 4 3 4 2 2 5 7 6 6 5 3 4 4 4 4 3 3 4 4 4 4 4 2 2 2 1 2 2 2 2 3 3 5 5 3 3 2 2 3 3
4 2 2 6 3 4 3 2 3 3 2 4 6 6 7 6 4 5 5 4 4 3 3 2 2 3 3 3 3 4 3 4 4 4 3 3 2 2 4 4 5 5 4 3 3 3 3 3 3
2 2 4 4 3 4 2 1 6 2 0 3 5 5 5 5 6 5 4 3 2 2 3 3 2 3 2 2 3 3 3 3 4 4 4 4 4 3 5 5 5 4 4 4 4 3 4 5 4
5 4 4 4 2 2 5 2 4 5 4 4 4 5 5 5 5 4 4 3 2 2 2 2 2 0 1 2 2 3 3 3 3 4 3 4 4 4 5 5 5 5 5 5 5 5 5 6 5
2 3 2 4 4 2 2 2 6 4 2 3 3 5 5 5 7 6 6 3 3 4 3 3 1 1 2 2 1 3 3 3 4 3 4 4 5 5 5 5 5 5 5 5 5 5 5 6 6
Wind_Direction
330 317 99 41 48 68 242 247 272 286 330 133 62 148 141 68 144 198 138 136 134 145 154 156 155 153 152 144 141 141 134 129 124 122 122 124 125 124 123 122 121 117 111 103 99 92 86 83 77
323 328 33 93 109 173 259 228 237 240 198 143 99 104 50 98 93 125 112 155 141 144 153 155 152 155 146 140 143 138 134 133 130 130 132 132 131 130 129 128 123 120 115 109 103 96 90 81 70
297 181 91 149 186 202 229 220 231 352 169 201 106 54 117 156 100 152 134 147 138 146 149 153 150 155 147 145 143 136 137 136 136 138 141 138 134 135 133 132 129 124 117 112 108 101 90 78 64
6 12 15 154 233 247 216 266 202 162 189 231 122 76 27 232 160 142 137 143 139 143 147 151 148 148 144 143 142 141 142 143 147 148 150 145 149 144 142 140 134 127 123 121 113 104 93 77 58
57 77 220 240 246 250 243 256 253 211 197 156 113 146 49 8 118 130 138 144 143 141 143 149 152 150 147 147 149 149 147 151 155 159 148 141 154 149 146 146 144 141 138 133 126 117 100 64 18
95 123 173 227 241 248 271 230 201 206 172 151 81 109 169 113 129 142 138 145 146 144 148 151 147 149 152 152 154 153 154 155 157 154 151 152 111 144 150 150 155 158 156 158 158 161 184 275 298
160 150 210 226 244 271 220 260 172 204 175 201 143 94 101 168 141 144 132 136 134 145 149 149 153 155 154 152 152 155 158 160 163 155 155 160 145 136 143 149 166 176 177 183 199 227 258 273 284
178 147 197 219 228 250 228 219 191 170 212 101 141 154 170 192 140 125 132 129 129 140 157 154 150 155 155 157 155 157 162 167 168 168 167 167 176 179 179 183 193 195 204 219 236 256 268 278 286
250 203 218 214 187 227 243 238 161 65 113 63 358 159 167 141 136 131 135 136 144 156 165 151 148 150 151 153 164 163 168 173 175 169 169 171 180 199 204 207 213 224 225 233 248 258 264 270 283
220 220 224 205 204 215 264 231 196 121 132 38 44 43 133 135 151 149 159 159 164 167 166 158 157 157 154 163 159 172 170 173 178 181 181 185 196 207 210 219 227 233 232 239 247 256 266 278 279
256 239 216 201 221 240 258 279 169 140 213 201 173 149 150 149 164 160 164 167 168 167 170 168 166 168 166 168 168 168 171 176 190 192 191 202 193 220 228 228 234 233 237 250 258 271 271 263 258
270 252 235 180 303 292 228 301 180 174 212 154 165 158 156 165 172 170 167 165 165 168 170 171 173 172 179 170 176 181 181 189 194 206 203 196 196 218 222 205 219 211 222 239 243 247 264 255 255
275 257 230 154 208 273 272 263 211 202 280 124 142 160 165 171 171 178 162 165 165 169 176 179 176 179 181 172 183 182 190 186 199 201 209 201 199 207 199 216 216 219 219 227 243 241 251 258 265
308 254 253 197 196 318 273 273 287 175 112 130 151 171 175 176 175 153 163 169 172 172 175 177 181 181 168 170 178 186 185 193 195 205 213 208 203 205 204 222 234 240 220 225 229 230 243 253 249
258 243 220 237 145 294 307 261 220 122 138 142 154 166 174 186 176 184 180 177 177 176 172 184 186 180 178 175 176 183 194 188 197 204 207 204 197 210 210 217 235 238 227 230 230 245 236 256 251
220 166 205 141 149 340 326 246 253 127 136 152 149 162 174 196 207 194 173 178 185 174 177 182 191 191 193 192 177 180 203 206 210 200 198 204 204 204 208 212 225 233 233 228 230 232 243 245 253
287 158 184 119 214 135 307 276 349 277 172 168 168 172 178 190 214 219 185 191 184 185 182 180 186 186 192 193 191 193 202 206 208 207 205 211 214 213 207 214 226 223 230 226 217 233 220 241 264
140 120 95 118 68 294 176 289 340 354 163 184 177 182 185 189 208 211 203 189 185 185 181 184 181 183 183 184 181 184 190 216 209 214 217 222 223 223 214 226 232 217 228 242 237 238 229 213 246
103 111 98 56 1 77 216 280 314 335 310 150 177 208 198 197 202 201 208 190 189 178 170 179 176 182 175 168 180 177 198 193 204 209 221 219 221 222 216 221 225 213 211 218 216 236 235 248 177
105 101 65 67 11 53 354 197 307 315 314 47 12 304 269 231 186 199 201 190 200 191 185 180 187 181 187 187 185 165 164 202 203 206 215 214 215 217 217 214 220 217 224 227 229 232 210 230 184
63 102 137 116 54 40 93 296 357 335 11 38 37 22 26 348 287 250 140 154 147 94 254 173 223 187 188 183 152 126 122 84 151 190 218 227 225 226 213 210 213 218 214 231 235 216 212 217 225
72 321 89 129 141 114 339 152 79 312 57 6 28 25 15 13 13 22 13 35 89 93 101 100 107 121 131 196 186 189 202 207 201 184 208 259 250 237 230 229 218 217 208 224 228 230 203 177 230
205 305 26 83 92 114 6 87 45 324 8 351 5 14 4 12 28 30 26 57 51 24 114 55 331 108 13 48 203 182 159 163 134 127 167 75 10 14 353 279 237 225 225 227 227 208 206 200 216
45 14 33 57 44 66 182 91 44 2 294 316 352 1 355 355 8 16 44 44 42 34 37 77 97 40 62 66 27 187 156 153 167 132 283 333 358 16 20 36 68 64 68 27 265 228 212 225 218
6 40 31 39 56 127 200 81 210 223 247 281 326 344 7 4 10 12 18 16 17 14 14 26 55 45 52 64 62 71 117 145 166 157 188 190 38 45 22 29 59 57 41 49 22 32 60 42 123
244 179 162 153 156 123 355 116 197 239 315 347 2 346 7 2 358 360 14 20 13 13 10 11 33 51 57 70 66 56 72 96 92 114 117 96 93 80 38 55 55 64 49 67 73 76 70 64 67
299 320 213 107 28 85 155 88 129 247 21 25 21 18 356 349 347 337 340 2 6 12 3 37 75 68 64 86 88 75 79 89 92 76 85 95 82 85 70 65 66 67 65 75 83 86 80 81 69
194 284 6 7 90 87 98 103 145 161 91 347 25 27 2 339 341 322 306 319 349 353 355 26 79 101 92 90 91 82 83 90 107 98 101 99 91 77 79 72 66 55 51 59 69 64 56 73 50
344 360 28 100 84 145 126 251 173 159 180 83 21 12 355 352 342 325 315 323 330 331 332 360 41 111 143 141 122 118 107 104 89 103 113 98 90 91 84 75 69 59 54 43 59 62 63 81 75
253 332 78 98 301 360 85 200 142 127 335 132 65 18 8 4 353 346 350 347 329 312 307 290 250 171 262 260 175 152 142 112 115 115 99 99 92 76 89 90 83 75 65 66 81 83 80 88 84